الجوف, Saudi Arabia

05:40 PM AST on لبراêر 26, 2017 (GMT +0300)
Al Jouf | | Change Station

Elev 2244 ft 29.78 °N, 40.10 °E | Updated 40 minutes ago

صافية
صافية
70 °F
Feels Like 70 °F
N
9
ريح متغير ريح from ESE

هذا اليوم
High -- | Low -- °F
--% Chance of Precip.
Yesterday
High -- | Low -- °F
Precip. -- في
الضغط 30.12 في
وضوح الرؤية -9999.0 أميال
سحابات
نقطة الندى 7 °F
الرطوبة 9%
Rainfall 0.00 في
عمق الثلج Not available.
6:48 AM 6:16 PM
الهلال الأخير, 0% visible
METAR OESK 261400Z 11008KT CAVOK 21/M14 Q1020 NOSIG
الضغط 30.12 في
وضوح الرؤية -9999.0 أميال
سحابات
نقطة الندى 7 °F
الرطوبة 9%
Rainfall 0.00 في
عمق الثلج Not available.
6:48 AM 6:16 PM
الهلال الأخير, 0% visible
METAR OESK 261400Z 11008KT CAVOK 21/M14 Q1020 NOSIG

Get Your Daily Forecast Email!

Thanks for signing up!

Be on the lookout for a verification email in your inbox.

You'll start receiving the daily forecast at 8 AM.

×

10-Day Weather Forecast

No radar image for this location.
×

Almanac

علم الفلك

Feb. 26, 2017 Rise Set
Actual Time
Civil Twilight
Nautical Twilight
Astronomical Twilight
قمر
Length Of Visible Light
طول الیوم
Tomorrow will be .
, % of the Moon is Illuminated

Today's Extremes

Country Highs Country Lows

Community

WunderPhotos

Upload Photos

1,962,540 photos uploaded!

WunderBlog® & News

Nearby

جودة الهواء

  جودة الهواء AQ Index Pollutant
Not available.

عمق الثلج

Station Depth Elevation

Earthquake Activity

City Distance Mag. Time & Date
Minimum magnitude displayed is 2.5.

Coastal Water Temperatures

مكان درجات الحرارة

Stations

Nearby Weather Stations

Station Location الحرارة رياح باردة نقطة الندى الرطوبة ريح Precip. Elev تحديث Type